Port Heiden, AK

7:09 AM AKST on November 23, 2017 (GMT -0900)
Port Heiden

Weather History for PAPH - July, 2014

Change the Weather History Date:

Saturday, July 12, 2014

  Actual Average Record
Temperature  
Mean Temperature 54 °F -  
Max Temperature 59 °F 55 °F 66 °F (2013)
Min Temperature 48 °F 44 °F 17 °F (2007)
Degree Days  
Heating Degree Days 12    
Growing Degree Days 4 (Base 50)    
Moisture  
Dew Point 41 °F    
Average Humidity 64    
Maximum Humidity 82    
Minimum Humidity 44    
Precipitation  
Precipitation 0.00 in - - ()
Sea Level Pressure  
Sea Level Pressure 29.73 in    
Wind  
Wind Speed 12 mph (SE)    
Max Wind Speed 24 mph    
Max Gust Speed 30 mph    
Visibility 10 miles    
Events      
Averages and records for this station are not official NWS values.
T = Trace of Precipitation, MM = Missing Value Source: NWS Daily Summary

Daily Weather History Graph

Daily Weather History Graph

Search for Another Location

Airport or City:

Trip Planner

Search our weather history database for the weather conditions in past years. The results will help you decide how hot, cold, wet, or windy it might be!

Date:

Astronomy

Jul. 12, 2014 Rise Set
Actual Time 5:58 AM AKDT 11:20 PM AKDT
Civil Twilight 4:57 AM AKDT 12:21 AM AKDT
Nautical Twilight 3:12 AM AKDT 2:07 AM AKDT
Astronomical Twilight Sun does not rise Sun does not rise
Moon 11:01 PM AKDT (7/12) 6:54 AM AKDT (7/12)
Length of Visible Light 19h 23m
Length of Day
17h 21m
Full, 100% of the Moon is Illuminated
Jul 12
Full
Jul 18
Last Quarter
Jul 26
New
Aug 3
First Quarter
Aug 10
Full

Hourly Weather History & Observations

Time (AKDT) Temp. Dew Point Humidity Pressure Visibility Wind Dir Wind Speed Gust Speed Precip Events Conditions
12:16 AM 48.2 °F 42.8 °F 82% 29.67 in 10.0 mi SE 6.9 mph - N/A   Overcast
12:36 AM 48.2 °F 41.0 °F 76% 29.67 in 10.0 mi SSE 6.9 mph - N/A   Mostly Cloudy
12:56 AM 48.2 °F 41.0 °F 76% 29.68 in 10.0 mi SE 6.9 mph - N/A   Overcast
1:16 AM 48.2 °F 41.0 °F 76% 29.67 in 10.0 mi SSE 8.1 mph - N/A   Overcast
1:36 AM 48.2 °F 39.2 °F 71% 29.68 in 10.0 mi SSE 9.2 mph - N/A   Overcast
1:56 AM 48.2 °F 39.2 °F 71% 29.67 in 10.0 mi SSE 8.1 mph - N/A   Overcast
2:16 AM 50.0 °F 39.2 °F 66% 29.67 in 10.0 mi SSE 9.2 mph - N/A   Overcast
2:36 AM 51.8 °F 39.2 °F 62% 29.68 in 10.0 mi SSE 10.4 mph - N/A   Overcast
2:56 AM 51.8 °F 39.2 °F 62% 29.68 in 10.0 mi SSE 11.5 mph - N/A   Overcast
3:16 AM 51.8 °F 39.2 °F 62% 29.68 in 10.0 mi South 9.2 mph - N/A   Overcast
3:36 AM 50.0 °F 39.2 °F 66% 29.68 in 10.0 mi SSW 10.4 mph - N/A   Overcast
3:56 AM 50.0 °F 41.0 °F 71% 29.68 in 10.0 mi SSW 9.2 mph - N/A   Overcast
4:16 AM 50.0 °F 41.0 °F 71% 29.69 in 10.0 mi South 9.2 mph - N/A   Overcast
4:36 AM 50.0 °F 41.0 °F 71% 29.69 in 10.0 mi SSW 6.9 mph - N/A   Overcast
4:56 AM 50.0 °F 41.0 °F 71% 29.69 in 10.0 mi SSW 8.1 mph - N/A   Overcast
5:16 AM 48.2 °F 41.0 °F 76% 29.69 in 10.0 mi SSW 5.8 mph - N/A   Overcast
5:36 AM 48.2 °F 41.0 °F 76% 29.69 in 10.0 mi SSW 3.5 mph - N/A   Overcast
5:56 AM 48.2 °F 41.0 °F 76% 29.69 in 10.0 mi South 4.6 mph - N/A   Overcast
6:16 AM 50.0 °F 41.0 °F 71% 29.69 in 10.0 mi South 5.8 mph - N/A   Overcast
6:36 AM 50.0 °F 41.0 °F 71% 29.69 in 10.0 mi South 3.5 mph - N/A   Overcast
6:56 AM 51.8 °F 41.0 °F 67% 29.70 in 10.0 mi ESE 4.6 mph - N/A   Overcast
7:16 AM 51.8 °F 42.8 °F 71% 29.69 in 10.0 mi SE 11.5 mph - N/A   Overcast
7:36 AM 51.8 °F 42.8 °F 71% 29.69 in 10.0 mi SE 12.7 mph - N/A   Overcast
7:56 AM 51.8 °F 42.8 °F 71% 29.69 in 10.0 mi SE 15.0 mph - N/A   Overcast
8:16 AM 53.6 °F 42.8 °F 67% 29.69 in 10.0 mi SE 15.0 mph - N/A   Overcast
8:36 AM 53.6 °F 42.8 °F 67% 29.70 in 10.0 mi SE 17.3 mph - N/A   Overcast
8:56 AM 53.6 °F 42.8 °F 67% 29.69 in 10.0 mi SE 20.7 mph - N/A   Overcast
9:16 AM 53.6 °F 42.8 °F 67% 29.70 in 10.0 mi SE 18.4 mph - N/A   Overcast
9:36 AM 55.4 °F 42.8 °F 63% 29.70 in 10.0 mi SE 17.3 mph - N/A   Overcast
9:56 AM 55.4 °F 42.8 °F 63% 29.70 in 10.0 mi SE 19.6 mph 25.3 mph N/A   Overcast
10:16 AM 55.4 °F 42.8 °F 63% 29.70 in 10.0 mi SE 21.9 mph 26.5 mph N/A   Overcast
10:36 AM 55.4 °F 42.8 °F 63% 29.71 in 10.0 mi SE 18.4 mph 24.2 mph N/A   Overcast
10:56 AM 55.4 °F 41.0 °F 58% 29.71 in 10.0 mi SE 19.6 mph 25.3 mph N/A   Overcast
11:16 AM 55.4 °F 41.0 °F 58% 29.71 in 10.0 mi SE 19.6 mph - N/A   Overcast
11:36 AM 55.4 °F 41.0 °F 58% 29.72 in 10.0 mi SE 23.0 mph 29.9 mph N/A   Overcast
11:56 AM 55.4 °F 41.0 °F 58% 29.72 in 10.0 mi SE 19.6 mph 25.3 mph N/A   Overcast
12:16 PM 55.4 °F 41.0 °F 58% 29.72 in 10.0 mi SE 20.7 mph 26.5 mph N/A   Overcast
12:36 PM 55.4 °F 42.8 °F 63% 29.72 in 10.0 mi SE 21.9 mph 27.6 mph N/A   Overcast
12:56 PM 55.4 °F 41.0 °F 58% 29.73 in 10.0 mi SE 18.4 mph 27.6 mph N/A   Overcast
1:16 PM 55.4 °F 41.0 °F 58% 29.74 in 10.0 mi SE 18.4 mph - N/A   Overcast
1:36 PM 55.4 °F 41.0 °F 58% 29.74 in 10.0 mi ESE 17.3 mph - N/A   Overcast
1:56 PM 55.4 °F 41.0 °F 58% 29.74 in 10.0 mi SE 17.3 mph - N/A   Overcast
2:16 PM 55.4 °F 41.0 °F 58% 29.74 in 10.0 mi SE 20.7 mph 25.3 mph N/A   Overcast
2:36 PM 57.2 °F 41.0 °F 55% 29.73 in 10.0 mi SE 24.2 mph - N/A   Overcast
2:56 PM 57.2 °F 41.0 °F 55% 29.73 in 10.0 mi SE 24.2 mph - N/A   Mostly Cloudy
3:16 PM 59.0 °F 42.8 °F 55% 29.74 in 10.0 mi SE 21.9 mph 26.5 mph N/A   Scattered Clouds
3:36 PM 57.2 °F 41.0 °F 55% 29.74 in 10.0 mi SE 19.6 mph - N/A   Mostly Cloudy
3:56 PM 57.2 °F 41.0 °F 55% 29.75 in 10.0 mi SE 21.9 mph 29.9 mph N/A   Overcast
4:16 PM 55.4 °F 41.0 °F 58% 29.75 in 10.0 mi SE 19.6 mph 29.9 mph N/A   Overcast
4:36 PM 57.2 °F 41.0 °F 55% 29.75 in 10.0 mi SE 24.2 mph 29.9 mph N/A   Overcast
4:56 PM 57.2 °F 41.0 °F 55% 29.76 in 10.0 mi SE 20.7 mph - N/A   Overcast
5:16 PM 55.4 °F 41.0 °F 58% 29.76 in 10.0 mi SE 20.7 mph 25.3 mph N/A   Overcast
5:36 PM 55.4 °F 39.2 °F 54% 29.76 in 10.0 mi SE 21.9 mph 27.6 mph N/A   Overcast
5:56 PM 55.4 °F 39.2 °F 54% 29.77 in 10.0 mi SE 19.6 mph - N/A   Overcast
6:16 PM 55.4 °F 39.2 °F 54% 29.77 in 10.0 mi ESE 19.6 mph 27.6 mph N/A   Overcast
6:36 PM 55.4 °F 39.2 °F 54% 29.77 in 10.0 mi ESE 16.1 mph - N/A   Overcast
6:56 PM 53.6 °F 41.0 °F 62% 29.77 in 10.0 mi SE 17.3 mph 23.0 mph N/A   Overcast
7:16 PM 53.6 °F 41.0 °F 62% 29.78 in 10.0 mi ESE 13.8 mph - N/A   Overcast
7:36 PM 53.6 °F 41.0 °F 62% 29.78 in 10.0 mi SE 16.1 mph 20.7 mph N/A   Overcast
7:56 PM 53.6 °F 42.8 °F 67% 29.79 in 10.0 mi SE 11.5 mph - N/A   Overcast
8:16 PM 53.6 °F 42.8 °F 67% 29.79 in 10.0 mi ESE 12.7 mph - N/A   Overcast
8:36 PM 53.6 °F 42.8 °F 67% 29.79 in 10.0 mi ESE 11.5 mph - N/A   Overcast
8:56 PM 53.6 °F 42.8 °F 67% 29.79 in 10.0 mi ESE 9.2 mph - N/A   Overcast
9:16 PM 53.6 °F 42.8 °F 67% 29.80 in 10.0 mi ESE 12.7 mph - N/A   Overcast
9:36 PM 53.6 °F 42.8 °F 67% 29.80 in 10.0 mi ESE 12.7 mph - N/A   Overcast
9:56 PM 53.6 °F 41.0 °F 62% 29.80 in 10.0 mi ESE 12.7 mph - N/A   Overcast
10:16 PM 51.8 °F 42.8 °F 71% 29.81 in 10.0 mi ESE 10.4 mph 16.1 mph N/A   Overcast
10:36 PM 51.8 °F 42.8 °F 71% 29.82 in 10.0 mi ESE 5.8 mph - N/A   Overcast
10:56 PM 51.8 °F 41.0 °F 67% 29.82 in 10.0 mi ESE 9.2 mph - N/A   Overcast
11:16 PM 51.8 °F 41.0 °F 67% 29.83 in 10.0 mi ESE 9.2 mph - N/A   Overcast
11:36 PM 51.8 °F 41.0 °F 67% 29.84 in 10.0 mi ESE 8.1 mph - N/A   Mostly Cloudy
11:56 PM 51.8 °F 41.0 °F 67% 29.84 in 10.0 mi SE 9.2 mph - N/A   Overcast